Terminal Aerodrome Forecast
Issued by NWS Pittsburgh, PA

Current Version | Previous Version | Graphics & Text | Print | Product List | Glossary On
Versions: 1 2 3 4 5 6 7 8 9 10 11 12 13 14 15 16 17 18 19 20 21 22 23 24 25 26 27 28 29 30
526
FTUS41 KPBZ 170848 AAA
TAFPIT
TAF AMD
KPIT 170848Z 1709/1812 30003KT P6SM OVC027
     FM171300 24003KT P6SM BKN050
     FM171900 18003KT P6SM SCT100
     FM180500 17005KT P6SM VCSH OVC050 WS020/21040KT=

USA.gov is the U.S. government's official web portal to all federal, state and local government web resources and services.